GW5591 Weather Reports


time (UTC)temp
C
wind
direction
speed
KPH
gust
KPH
rain 1hr
cm
rain 24hr
cm
rain mn
cm
humidity
%
barometer
mb
20260505065339 16 193 6.4 9.7 0.00 0.00 0.00 53 1010.2
20260505064836 16 113 0.0 3.2 0.00 0.00 0.00 52 1010.5
20260505064333 16 114 0.0 1.6 0.00 0.00 0.00 52 1010.4
20260505063831 16 179 1.6 3.2 0.00 0.00 0.00 53 1010.6
20260505063327 16 135 1.6 3.2 0.00 0.00 0.00 55 1010.6
20260505062824 16 301 1.6 3.2 0.00 0.00 0.00 55 1010.3
20260505062321 16 144 0.0 1.6 0.00 0.00 0.00 55 1010.2
20260505061818 15 177 0.0 4.8 0.00 0.00 0.00 55 1010.6
20260505061316 15 146 1.6 3.2 0.00 0.00 0.00 56 1010.3
20260505060813 15 259 4.8 4.8 0.00 0.00 0.00 56 1010.5
20260505060310 15 312 3.2 4.8 0.00 0.00 0.00 56 1010.5
20260505055806 15 254 1.6 4.8 0.00 0.00 0.00 59 1010.5
20260505055303 14 64 1.6 4.8 0.00 0.00 0.00 59 1010.6
20260505054800 14 20 0.0 1.6 0.00 0.00 0.00 61 1010.7
20260505054257 14 31 1.6 1.6 0.00 0.00 0.00 62 1010.6
20260505053755 14 229 0.0 1.6 0.00 0.00 0.00 63 1010.8
20260505053251 14 348 0.0 3.2 0.00 0.00 0.00 62 1010.7
20260505052748 13 280 0.0 0.0 0.00 0.00 0.00 64 1011.1
20260505052245 14 322 1.6 1.6 0.00 0.00 0.00 64 1010.7
20260505051742 13 224 3.2 3.2 0.00 0.00 0.00 64 1010.7
20260505051240 13 230 0.0 3.2 0.00 0.00 0.00 65 1010.7
20260505050738 13 147 1.6 1.6 0.00 0.00 0.00 66 1010.8
20260505050236 13 160 1.6 6.4 0.00 0.00 0.00 66 1011.1
20260505041706 13 119 0.0 1.6 0.00 0.00 0.00 70 1010.7
20260505041203 13 70 0.0 1.6 0.00 0.00 0.00 69 1010.6
20260505040700 13 70 0.0 1.6 0.00 0.00 0.00 69 1010.7
20260505040157 13 91 0.0 0.0 0.00 0.00 0.00 70 1010.5
20260505035654 13 95 0.0 0.0 0.00 0.00 0.00 68 1010.5
20260505035150 13 64 0.0 0.0 0.00 0.00 0.00 68 1010.6
20260505034647 13 72 0.0 0.0 0.00 0.00 0.00 69 1010.7
20260505034144 13 71 0.0 0.0 0.00 0.00 0.00 68 1010.8
20260505033640 13 262 1.6 3.2 0.00 0.00 0.00 68 1010.7
20260505033139 13 142 1.6 1.6 0.00 0.00 0.00 69 1010.6
20260505032637 13 329 0.0 0.0 0.00 0.00 0.00 69 1010.8
20260505032132 13 325 1.6 1.6 0.00 0.00 0.00 68 1010.8
20260505031630 13 3 0.0 3.2 0.00 0.00 0.00 69 1010.7
20260505031126 13 43 1.6 1.6 0.00 0.00 0.00 68 1010.9
20260505030623 13 59 0.0 1.6 0.00 0.00 0.00 68 1010.8
20260505030119 13 58 0.0 1.6 0.00 0.00 0.00 66 1010.9
20260505025615 13 11 0.0 1.6 0.00 0.00 0.00 66 1010.9
20260505025114 14 184 1.6 3.2 0.00 0.00 0.00 65 1011.1
20260505024611 14 355 0.0 1.6 0.00 0.00 0.00 64 1011.1
20260505024108 14 177 0.0 3.2 0.00 0.00 0.00 64 1010.9
20260505023605 14 341 0.0 1.6 0.00 0.00 0.00 65 1011.2
20260505023103 15 131 1.6 1.6 0.00 0.00 0.00 63 1010.8
20260505022600 15 134 0.0 1.6 0.00 0.00 0.00 63 1010.8
20260505022057 15 151 1.6 1.6 0.00 0.00 0.00 62 1010.8
20260505021553 15 338 3.2 3.2 0.00 0.00 0.00 62 1011.1
20260505021050 15 101 0.0 1.6 0.00 0.00 0.00 62 1010.8
20260505020550 15 1 0.0 3.2 0.00 0.00 0.00 60 1011.1
20260505020047 15 336 6.4 11.3 0.00 0.00 0.00 61 1011.2
20260505015544 15 116 0.0 1.6 0.00 0.00 0.00 61 1011.2
20260505015041 15 349 1.6 4.8 0.00 0.00 0.00 61 1011.2
20260505014538 15 62 0.0 1.6 0.00 0.00 0.00 61 1010.9
20260505014035 15 147 0.0 3.2 0.00 0.00 0.00 61 1010.7
20260505013532 15 218 0.0 1.6 0.00 0.00 0.00 62 1010.8
20260505013029 15 278 1.6 3.2 0.00 0.00 0.00 62 1011.2
20260505012527 15 159 1.6 1.6 0.00 0.00 0.00 61 1010.7
20260505012024 15 254 0.0 1.6 0.00 0.00 0.00 61 1010.9
20260505011519 15 163 0.0 4.8 0.00 0.00 0.00 60 1010.6
20260505011017 15 147 0.0 0.0 0.00 0.00 0.00 62 1010.6
20260505010512 15 149 1.6 3.2 0.00 0.00 0.00 61 1010.6
20260505010009 15 188 0.0 1.6 0.00 0.00 0.00 62 1010.6
20260505005506 15 162 0.0 1.6 0.00 0.00 0.00 61 1010.5
20260505005004 15 128 0.0 1.6 0.00 0.00 0.00 61 1010.3
20260505004500 15 148 0.0 1.6 0.00 0.00 0.00 60 1010.5
20260505003956 15 163 0.0 1.6 0.00 0.00 0.00 60 1010.4
20260505003454 16 258 1.6 3.2 0.00 0.00 0.00 58 1010.6
20260505002950 16 163 0.0 0.0 0.00 0.00 0.00 58 1010.6
20260505002446 16 270 1.6 3.2 0.00 0.00 0.00 59 1010.4
20260505001945 16 142 0.0 0.0 0.00 0.00 0.00 59 1010.5
20260505001442 16 281 1.6 4.8 0.00 0.00 0.00 59 1010.5
20260505000939 16 97 0.0 1.6 0.00 0.00 0.00 58 1010.5
20260505000437 16 124 0.0 3.2 0.00 0.00 0.00 57 1010.5
20260504235933 16 135 0.0 0.0 0.00 0.00 0.00 57 1010.4
20260504235431 16 252 1.6 1.6 0.00 0.00 0.00 56 1010.3
20260504234926 16 48 1.6 3.2 0.00 0.00 0.00 56 1010.3
20260504234424 17 197 1.6 4.8 0.00 0.00 0.00 55 1010.3
20260504233921 17 315 1.6 4.8 0.00 0.00 0.00 54 1010.2
20260504233417 17 193 1.6 3.2 0.00 0.00 0.00 54 1010.0
20260504232913 17 222 1.6 3.2 0.00 0.00 0.00 54 1010.2
20260504232410 17 252 1.6 3.2 0.00 0.00 0.00 53 1010.0
20260504231908 17 149 0.0 3.2 0.00 0.00 0.00 53 1010.2
20260504231404 17 87 0.0 3.2 0.00 0.00 0.00 53 1010.1
20260504230900 17 140 1.6 6.4 0.00 0.00 0.00 52 1010.2
20260504230358 17 151 0.0 3.2 0.00 0.00 0.00 53 1010.1
20260504225856 17 122 0.0 1.6 0.00 0.00 0.00 52 1010.4
20260504225352 17 300 1.6 4.8 0.00 0.00 0.00 53 1010.1
20260504224850 17 288 1.6 4.8 0.00 0.00 0.00 52 1010.4
20260504224346 17 175 3.2 4.8 0.00 0.00 0.00 51 1010.1
20260504223843 17 147 1.6 3.2 0.00 0.00 0.00 51 1010.3
20260504223339 18 222 1.6 4.8 0.00 0.00 0.00 51 1010.1
20260504222835 18 117 1.6 3.2 0.00 0.00 0.00 51 1010.1
20260504222332 18 148 0.0 9.7 0.00 0.00 0.00 50 1010.1
20260504221831 18 296 4.8 9.7 0.00 0.00 0.00 50 1010.0
20260504221327 18 29 3.2 4.8 0.00 0.00 0.00 48 1010.1
20260504220824 18 141 0.0 1.6 0.00 0.00 0.00 49 1010.1
20260504220321 18 126 1.6 4.8 0.00 0.00 0.00 48 1010.1
20260504215819 18 52 3.2 6.4 0.00 0.00 0.00 49 1010.1
20260504215315 18 241 3.2 11.3 0.00 0.00 0.00 48 1010.2
20260504214811 18 274 3.2 11.3 0.00 0.00 0.00 48 1010.2
20260504214308 19 155 0.0 4.8 0.00 0.00 0.00 47 1010.3
20260504213804 20 299 3.2 9.7 0.00 0.00 0.00 46 1010.1
20260504213300 19 178 3.2 3.2 0.00 0.00 0.00 47 1010.2
20260504212758 20 126 1.6 4.8 0.00 0.00 0.00 47 1010.1
20260504212254 20 134 1.6 4.8 0.00 0.00 0.00 46 1010.0
20260504211752 19 148 0.0 3.2 0.00 0.00 0.00 47 1009.9
20260504211247 18 168 1.6 6.4 0.00 0.00 0.00 47 1010.0
20260504210745 20 113 6.4 9.7 0.00 0.00 0.00 46 1010.2
20260504210242 20 163 1.6 3.2 0.00 0.00 0.00 45 1010.0
20260504205739 20 265 3.2 4.8 0.00 0.00 0.00 44 1010.0
20260504205237 20 180 0.0 3.2 0.00 0.00 0.00 46 1009.9
20260504204735 20 169 1.6 4.8 0.00 0.00 0.00 45 1010.0
20260504204233 20 282 4.8 4.8 0.00 0.00 0.00 46 1010.0
20260504203732 20 183 0.0 6.4 0.00 0.00 0.00 44 1009.9
20260504203229 21 167 3.2 11.3 0.00 0.00 0.00 42 1009.9
20260504202729 20 287 1.6 6.4 0.00 0.00 0.00 44 1010.2
20260504202226 21 348 6.4 11.3 0.00 0.00 0.00 42 1009.8
20260504201724 20 236 6.4 9.7 0.00 0.00 0.00 43 1010.0
20260504201221 20 132 3.2 3.2 0.00 0.00 0.00 46 1010.1
20260504200718 20 144 1.6 3.2 0.00 0.00 0.00 45 1010.0
20260504200214 21 278 1.6 6.4 0.00 0.00 0.00 43 1010.1
20260504195711 21 178 4.8 6.4 0.00 0.00 0.00 44 1010.3
20260504195207 20 141 1.6 4.8 0.00 0.00 0.00 46 1010.3
20260504194704 20 5 6.4 9.7 0.00 0.00 0.00 44 1010.3
20260504194200 20 159 3.2 6.4 0.00 0.00 0.00 47 1010.4
20260504193656 20 153 1.6 3.2 0.00 0.00 0.00 47 1010.2
20260504193154 20 130 3.2 12.9 0.00 0.00 0.00 49 1010.4
20260504192652 20 163 3.2 6.4 0.00 0.00 0.00 47 1010.5
20260504192150 20 138 4.8 9.7 0.00 0.00 0.00 46 1010.6
20260504191648 20 96 0.0 4.8 0.00 0.00 0.00 46 1010.5
20260504191144 20 287 3.2 6.4 0.00 0.00 0.00 47 1010.6
20260504190640 18 153 1.6 4.8 0.00 0.00 0.00 49 1010.4
20260504190137 17 73 6.4 6.4 0.00 0.00 0.00 51 1010.7
20260504185633 18 148 4.8 6.4 0.00 0.00 0.00 50 1010.6
20260504185130 18 113 3.2 4.8 0.00 0.00 0.00 48 1010.6
20260504184626 19 143 1.6 6.4 0.00 0.00 0.00 48 1010.7
20260504184121 20 280 1.6 6.4 0.00 0.00 0.00 47 1010.7
20260504183619 19 180 4.8 6.4 0.00 0.00 0.00 48 1010.9
20260504183116 19 85 1.6 9.7 0.00 0.00 0.00 47 1010.9
20260504182614 20 151 1.6 4.8 0.00 0.00 0.00 46 1010.7
20260504182111 20 122 6.4 6.4 0.00 0.00 0.00 45 1010.9
20260504181608 20 143 1.6 9.7 0.00 0.00 0.00 48 1011.1
20260504181105 20 217 4.8 4.8 0.00 0.00 0.00 45 1010.8
20260504180604 18 293 4.8 4.8 0.00 0.00 0.00 48 1011.2
20260504180103 17 135 3.2 6.4 0.00 0.00 0.00 49 1011.2
20260504175600 17 332 1.6 4.8 0.00 0.00 0.00 52 1011.5
20260504175056 18 139 0.0 11.3 0.00 0.00 0.00 49 1011.4
20260504174555 18 126 1.6 6.4 0.00 0.00 0.00 48 1011.3
20260504174051 19 280 3.2 11.3 0.00 0.00 0.00 46 1011.6
20260504173548 19 198 3.2 6.4 0.00 0.00 0.00 46 1011.3
20260504173045 19 354 3.2 6.4 0.00 0.00 0.00 46 1011.4
20260504172541 19 287 4.8 11.3 0.00 0.00 0.00 44 1011.4
20260504172038 18 168 3.2 6.4 0.00 0.00 0.00 46 1011.4
20260504171535 18 115 3.2 6.4 0.00 0.00 0.00 45 1011.6
20260504171032 18 123 1.6 4.8 0.00 0.00 0.00 48 1011.5
20260504170528 18 151 0.0 4.8 0.00 0.00 0.00 45 1011.7
20260504150912 17 179 3.2 4.8 0.00 0.00 0.00 43 1012.8
20260504150409 16 162 1.6 4.8 0.00 0.00 0.00 43 1012.9
20260504140835 15 79 0.0 0.0 0.00 0.00 0.00 46 1012.7
20260504140330 14 128 1.6 3.2 0.00 0.00 0.00 46 1012.9
20260504130800 12 296 0.0 3.2 0.00 0.00 0.00 52 1013.4
20260504130256 11 141 1.6 3.2 0.00 0.00 0.00 52 1013.1
20260504120219 9 136 0.0 1.6 0.00 0.00 0.00 60 1013.6
20260504110647 8 128 0.0 0.0 0.00 0.00 0.00 65 1013.3
20260504110143 7 46 1.6 1.6 0.00 0.00 0.00 67 1013.5
20260504100609 7 143 0.0 0.0 0.00 0.00 0.00 62 1013.5
20260504100107 7 140 0.0 1.6 0.00 0.00 0.00 63 1013.3
20260504082003 7 214 1.6 1.6 0.00 0.00 0.00 54 1014.2
20260504081500 8 134 0.0 0.0 0.00 0.00 0.00 52 1014.4
20260504080955 8 133 0.0 0.0 0.00 0.00 0.00 51 1014.1
20260504080452 8 134 0.0 0.0 0.00 0.00 0.00 51 1014.2